User: anonymous   Login
Location: Unspecified
(0.0000°N, 0.0000°E)
Time: 04:43:54
(UTC+00:00)
Language:

Cosmos 2327 - Orbit

View from above orbital plane
View from above orbital plane
View from above satellite
View from above satellite

Ground track
Ground track

The orbit data is extracted from the following two-line orbital elements,

1 23773U 96004A   18016.14901778  .00000051  00000-0  37588-4 0  9995
2 23773  82.9818 227.3022 0047447 195.0589 286.7224 13.74482258103561
Epoch (UTC): 16 January 2018 03:34:35
Eccentricity: 0.0047447
inclination: 82.9818°
perigee height: 948 km
apogee height: 1018 km
right ascension of ascending node: 227.3022°
argument of perigee: 195.0589°
revolutions per day: 13.74482258
mean anomaly at epoch: 286.7224°
orbit number at epoch: 10356

The dashed part of the orbit path shows where the satellite is in the earth's shadow,  

DLR